Location: Balmoral
(33.0667°S, 151.5833°E)
Time: 01:02:43
(UTC+00:00)

Okean 1-7 - Pass Details

Date: 18 September 2020
Orbit: 591 x 618 km, 82.5° (Epoch: 21 October)

Event Time Altitude Azimuth Distance (km) Brightness Sun altitude
Rises 19:17:08 0° 195° (SSW) 2,916 6.4 -7.2°
Reaches altitude 10° 19:19:28 10° 201° (SSW) 1,999 5.5 -6.7°
Maximum altitude 19:23:39 43° 272° (W) 874 3.4 -5.8°
Drops below altitude 10° 19:27:45 10° 343° (NNW) 1,957 5.4 -4.9°
Sets 19:30:01 0° 350° (N) 2,847 6.3 -4.5°
